Andrews AFB, MD

6:27 AM EDT on August 17, 2017 (GMT -0400)
Andrews Air Force Base-Naf

Weather History for KADW - January, 2013

Change the Weather History Date:

Friday, January 18, 2013

  Actual Average Record
Temperature  
Mean Temperature 32 °F -  
Max Temperature 38 °F 37 °F 62 °F (2006)
Min Temperature 27 °F 22 °F 6 °F (1997)
Degree Days  
Heating Degree Days 32    
Moisture  
Dew Point 17 °F    
Average Humidity 51    
Maximum Humidity 68    
Minimum Humidity 30    
Precipitation  
Precipitation 0.00 in - - ()
Sea Level Pressure  
Sea Level Pressure 30.39 in    
Wind  
Wind Speed 10 mph (WNW)    
Max Wind Speed 21 mph    
Max Gust Speed 28 mph    
Visibility 10 miles    
Events      
Averages and records for this station are not official NWS values.
T = Trace of Precipitation, MM = Missing Value Source: NWS Daily Summary

Daily Weather History Graph

Daily Weather History Graph

Search for Another Location

Airport or City:

Trip Planner

Search our weather history database for the weather conditions in past years. The results will help you decide how hot, cold, wet, or windy it might be!

Date:

Astronomy

Jan. 18, 2013 Rise Set
Actual Time 7:22 AM EST 5:13 PM EST
Civil Twilight 6:54 AM EST 5:42 PM EST
Nautical Twilight 6:21 AM EST 6:14 PM EST
Astronomical Twilight 5:49 AM EST 6:46 PM EST
Moon 11:05 AM EST (1/18) No Moon Set
Length of Visible Light 10h 48m
Length of Day
9h 50m
Waxing Crescent, 47% of the Moon is Illuminated
Jan 18
Waxing Crescent
Jan 18
First Quarter
Jan 26
Full
Feb 3
Last Quarter
Feb 10
New

Hourly Weather History & Observations

Time (EST) Temp. Windchill Dew Point Humidity Pressure Visibility Wind Dir Wind Speed Gust Speed Precip Events Conditions
12:55 AM 38.7 °F 34.3 °F 28.2 °F 66% 30.11 in 10.0 mi WNW 5.8 mph - N/A   Clear
1:55 AM 38.3 °F 33.2 °F 27.1 °F 64% 30.14 in 10.0 mi WNW 6.9 mph - N/A   Clear
2:55 AM 36.9 °F 30.1 °F 27.1 °F 68% 30.15 in 10.0 mi WNW 9.2 mph - N/A   Clear
3:55 AM 35.8 °F 28.3 °F 26.2 °F 68% 30.15 in 10.0 mi WNW 10.4 mph - N/A   Clear
4:55 AM 36.9 °F 28.2 °F 23.5 °F 59% 30.20 in 10.0 mi WNW 13.8 mph 21.9 mph N/A   Clear
5:55 AM 36.9 °F 28.7 °F 22.6 °F 56% 30.24 in 10.0 mi NW 12.7 mph - N/A   Mostly Cloudy
6:55 AM 35.8 °F 27.3 °F 20.5 °F 54% 30.28 in 10.0 mi NW 12.7 mph - N/A   Scattered Clouds
7:55 AM 34.0 °F 24.2 °F 18.7 °F 54% 30.35 in 10.0 mi NW 15.0 mph - N/A   Mostly Cloudy
8:55 AM 33.8 °F 22.8 °F 17.8 °F 52% 30.42 in 10.0 mi NNW 18.4 mph 26.5 mph N/A   Clear
9:55 AM 34.0 °F 22.4 °F 16.0 °F 48% 30.45 in 10.0 mi NNW 20.7 mph 27.6 mph N/A   Clear
10:55 AM 34.5 °F 23.4 °F 14.2 °F 43% 30.47 in 10.0 mi NNW 19.6 mph - N/A   Clear
11:55 AM 34.9 °F 25.7 °F 12.7 °F 40% 30.47 in 10.0 mi North 13.8 mph - N/A   Clear
12:55 PM 34.3 °F 25.0 °F 8.8 °F 35% 30.46 in 10.0 mi NW 13.8 mph - N/A   Clear
1:55 PM 35.2 °F 28.1 °F 8.1 °F 32% 30.48 in 10.0 mi West 9.2 mph - N/A   Clear
2:55 PM 35.4 °F 31.5 °F 6.4 °F 30% 30.48 in 10.0 mi Variable 4.6 mph - N/A   Clear
3:55 PM 35.2 °F 30.3 °F 7.9 °F 32% 30.50 in 10.0 mi WNW 5.8 mph - N/A   Clear
4:55 PM 34.3 °F 28.4 °F 9.9 °F 36% 30.51 in 10.0 mi WNW 6.9 mph - N/A   Clear
5:55 PM 30.0 °F - 13.6 °F 51% 30.51 in 10.0 mi Calm Calm - N/A   Clear
6:55 PM 28.0 °F 22.8 °F 14.5 °F 57% 30.51 in 10.0 mi SE 4.6 mph - N/A   Clear
7:55 PM 27.1 °F 20.7 °F 15.1 °F 60% 30.50 in 10.0 mi SSE 5.8 mph - N/A   Clear
8:55 PM 28.9 °F 22.8 °F 12.7 °F 51% 30.51 in 10.0 mi South 5.8 mph - N/A   Clear
9:55 PM 27.7 °F 20.4 °F 13.6 °F 56% 30.50 in 10.0 mi South 6.9 mph - N/A   Clear
10:55 PM 28.4 °F 20.4 °F 15.6 °F 59% 30.48 in 10.0 mi South 8.1 mph - N/A   Clear
11:55 PM 29.8 °F 21.5 °F 18.7 °F 63% 30.45 in 10.0 mi South 9.2 mph - N/A   Clear